Location: Harwich
(41.7160°N, 69.9939°W)
Time: 10:59:19
(UTC+01:00)

Transit 2A - Visible Passes

Search period start: 01 March 2024 00:00
Search period end: 11 March 2024 00:00
Orbit: 599 x 953 km, 66.7° (Epoch: 01 March)

Date Brightness Start Highest point End Pass type
(mag) Time Alt. Az. Time Alt. Az. Time Alt. Az.
01 Mar 7.7 01:11:58 10° WSW 01:15:32 25° NW 01:19:09 10° N visible
02 Mar 7.0 00:36:21 10° WSW 00:40:22 36° NW 00:44:26 10° NNE visible
03 Mar 6.2 00:01:00 10° SW 00:05:16 57° WNW 00:09:35 10° NNE visible
04 Mar 8.4 01:12:11 10° WNW 01:14:00 12° NW 01:15:51 10° NNW visible
05 Mar 8.2 00:35:46 10° W 00:38:41 17° NW 00:41:39 10° N visible
05 Mar 7.8 23:59:52 10° WSW 00:03:27 25° NW 00:07:06 10° N visible
